Terminal Aerodrome Forecast
Issued by NWS Chicago, IL

Home | Current Version | Previous Version | Text Only | Print | Product List | Glossary On
Versions: 1 2 3 4 5 6 7 8 9 10 11 12 13 14 15 16 17 18 19 20 21 22 23 24 25 26 27 28 29 30 31
000
FTUS43 KLOT 201600 AAB
TAFRFD
TAF AMD
KRFD 201602Z 2016/2112 16003KT P6SM SCT035 OVC045
     FM202300 16006KT P6SM BKN025 OVC035
     FM210800 17006KT 5SM BR OVC015 PROB30 2108/2112 -FZDZ=

USA.gov is the U.S. government's official web portal to all federal, state and local government web resources and services.